Weather reports worldwide

Advertisment
St-Auban-Sur-Durance, France (7588): temperature & dewpoint: 15.06.2018 23:00:00 - 21.06.2018 23:00:00 (CEST)St-Auban-Sur-Durance, France (7588): temperature 5cm: 15.06.2018 23:00:00 - 21.06.2018 23:00:00 (CEST)St-Auban-Sur-Durance, France (7588): temperature -20cm: 15.06.2018 23:00:00 - 21.06.2018 23:00:00 (CEST)St-Auban-Sur-Durance, France (7588): wind speed & gusts: 15.06.2018 23:00:00 - 21.06.2018 23:00:00 (CEST)St-Auban-Sur-Durance, France (7588): wind direction: 15.06.2018 23:00:00 - 21.06.2018 23:00:00 (CEST)St-Auban-Sur-Durance, France (7588): reduced air pressure: 15.06.2018 23:00:00 - 21.06.2018 23:00:00 (CEST)St-Auban-Sur-Durance, France (7588): visibility: 15.06.2018 23:00:00 - 21.06.2018 23:00:00 (CEST)St-Auban-Sur-Durance, France (7588): sunshine duration: 15.06.2018 23:00:00 - 21.06.2018 23:00:00 (CEST)St-Auban-Sur-Durance, France (7588): precipitation: 15.06.2018 23:00:00 - 21.06.2018 23:00:00 (CEST)
Date & Time tt [°C] td [°C] tt 5cm [°C] tt -20cm [°C] ff [km/h] ff [kn] fx [km/h] fx [kn] dd ppp [hPa] vv [km] sd [min] rr [mm]
21.06.2018 23:00:00 23,3 14,3 21,4 25,9 8 4 18 10 N 1013,0 20 0 0,0
21.06.2018 22:00:00 25,3 15,0 22,6 26,0 9 5 16 9 N 1012,2 20 0 0,0
21.06.2018 21:00:00 27,3 15,6 26,3 25,9 8 4 27 15 NW 1011,9 20 28 0,0
21.06.2018 20:00:00 29,1 17,3 32,3 25,8 19 11 28 15 SW 1011,6 20 60 0,0
21.06.2018 19:00:00 30,7 14,8 34,9 25,5 10 6 31 17 W 1011,3 20 60 0,0
21.06.2018 18:00:00 31,1 16,7 36,0 25,2 16 9 29 16 WNW 1011,5 20 60 0,0
21.06.2018 17:00:00 30,0 18,4 33,4 24,8 23 12 38 20 SW 1012,3 20 53 0,0
21.06.2018 16:00:00 30,1 17,5 34,7 24,4 20 11 38 21 SSW 1012,6 20 54 0,0
21.06.2018 15:00:00 29,4 17,2 35,3 24,0 16 9 29 16 SW 1013,2 20 57 0,0
21.06.2018 14:00:00 29,0 17,5 36,3 23,7 9 5 23 12 S 1014,1 20 58 0,0
21.06.2018 13:00:00 28,5 17,1 35,7 23,4 7 4 16 9 S 1015,0 20 60 0,0
21.06.2018 12:00:00 27,0 17,5 33,6 23,2 6 4 16 9 E 1015,6 20 60 0,0
21.06.2018 11:00:00 24,7 16,7 30,3 23,2 10 5 24 13 NNE 1016,5 20 60 0,0
21.06.2018 10:00:00 23,0 16,8 26,1 23,2 10 6 29 16 ENE 1017,2 18 60 0,0
21.06.2018 09:00:00 21,0 17,0 23,9 23,3 16 9 31 17 NE 1018,0 20 60 0,0
21.06.2018 08:00:00 19,7 16,7 19,2 23,5 11 6 24 13 ENE 1018,4 20 60 0,0
21.06.2018 07:00:00 18,3 16,5 17,9 23,7 8 4 16 9 ENE 1018,7 20 30 0,0
21.06.2018 06:00:00 18,0 16,5 17,2 23,8 4 2 19 10 ENE 1018,8 20 0 0,0
21.06.2018 05:00:00 17,5 16,0 17,5 24,0 8 4 17 9 E 1019,0 20 0 0,0
21.06.2018 04:00:00 18,2 16,4 18,1 24,1 6 3 20 11 E 1019,4 20 0 0,0
21.06.2018 03:00:00 18,2 16,7 17,5 24,3 9 5 21 11 ESE 1019,6 20 0 0,0
21.06.2018 02:00:00 18,5 17,3 18,6 24,5 7 4 19 10 E 1019,5 15 0 0,0
21.06.2018 01:00:00 18,7 17,7 19,1 24,6 4 2 9 5 ENE 1019,7 12 0 0,0
21.06.2018 00:00:00 19,6 18,3 19,8 24,7 7 4 11 6 NNE 1019,7 19 0 0,0
20.06.2018 23:00:00 19,9 18,6 20,0 24,8 6 3 10 5 NE 1019,8 16 0 0,0
20.06.2018 22:00:00 20,2 18,7 20,3 24,9 7 4 14 8 NNE 1019,8 15 0 0,4
20.06.2018 21:00:00 21,5 17,9 21,2 24,9 0 0 7 4 N 1019,2 20 0 0,0
20.06.2018 20:00:00 22,5 17,4 22,8 25,0 4 2 22 12 S 1019,1 20 0 0,0
20.06.2018 19:00:00 23,4 16,9 24,1 24,9 16 9 37 20 SW 1018,6 20 0 0,0
20.06.2018 18:00:00 25,9 15,9 26,7 24,7 9 5 28 15 SSE 1017,9 20 3 0,0
20.06.2018 17:00:00 26,9 15,3 29,0 24,4 16 9 34 18 SE 1017,2 20 0 0,0
20.06.2018 16:00:00 28,6 15,2 31,9 24,1 13 7 36 19 S 1017,1 20 25 0,0
20.06.2018 15:00:00 29,3 15,8 32,2 23,8 20 11 32 17 SW 1017,2 20 53 0,0
20.06.2018 14:00:00 28,7 15,9 32,7 23,4 16 9 28 15 S 1017,6 20 43 0,0
20.06.2018 13:00:00 28,5 15,8 35,3 23,2 18 10 30 16 SSW 1018,2 20 60 0,0
20.06.2018 12:00:00 27,7 15,7 35,1 22,9 15 8 27 15 SSW 1018,6 19 60 0,0
20.06.2018 11:00:00 27,1 16,1 31,8 22,9 3 2 10 5 E 1018,7 20 60 0,0
20.06.2018 10:00:00 24,1 16,6 28,6 22,9 6 3 13 7 E 1019,3 20 60 0,0
20.06.2018 09:00:00 21,7 16,2 25,1 23,0 8 4 14 7 ENE 1019,9 20 60 0,0
20.06.2018 08:00:00 19,4 15,7 18,4 23,1 6 3 9 5 ENE 1020,4 20 60 0,0
20.06.2018 07:00:00 17,4 15,2 15,5 23,3 5 3 9 5 NE 1020,5 20 31 0,0
20.06.2018 06:00:00 16,1 14,1 15,4 23,5 6 3 11 6 NNE 1020,4 20 0 0,0
20.06.2018 05:00:00 16,0 14,4 15,9 23,7 7 4 13 7 NNE 1020,1 20 0 0,0
20.06.2018 04:00:00 16,3 14,3 15,9 23,9 9 5 14 8 NNE 1020,2 20 0 0,0
20.06.2018 03:00:00 16,9 14,4 16,7 24,1 8 4 13 7 NNE 1020,1 20 0 0,0
20.06.2018 02:00:00 17,7 14,6 17,2 24,2 6 3 12 6 NE 1019,9 20 0 0,0
20.06.2018 01:00:00 18,6 14,7 17,6 24,4 5 3 9 5 NNE 1019,8 20 0 0,0
20.06.2018 00:00:00 19,9 14,7 19,0 24,5 0 0 7 4 N 1019,2 20 0 0,0
19.06.2018 23:00:00 20,9 14,8 19,9 24,6 0 0 8 4 N 1018,6 20 0 0,0
19.06.2018 22:00:00 23,0 16,1 21,7 24,6 4 2 10 6 SSW 1017,5 19 0 0,0
19.06.2018 21:00:00 26,3 16,8 25,0 24,6 3 2 22 12 E 1016,3 20 27 0,0
19.06.2018 20:00:00 28,4 16,0 28,8 24,5 14 8 27 14 SSW 1015,8 19 25 0,0
19.06.2018 19:00:00 28,1 17,0 29,1 24,3 16 9 27 15 SSW 1016,0 20 9 0,0
19.06.2018 18:00:00 28,6 16,5 30,2 24,1 18 10 29 16 SSW 1016,2 20 21 0,0
19.06.2018 17:00:00 29,3 15,4 31,3 23,8 18 10 28 15 S 1016,2 20 26 0,0
19.06.2018 16:00:00 29,9 14,0 32,5 23,3 14 8 29 15 SSW 1016,5 20 54 0,0
19.06.2018 15:00:00 29,6 13,8 36,6 22,9 10 6 24 13 S 1017,0 20 60 0,0
19.06.2018 14:00:00 29,4 15,1 35,5 22,4 6 4 17 9 SSE 1017,5 20 60 0,0
19.06.2018 13:00:00 27,3 14,7 35,3 22,1 9 5 23 12 E 1018,4 19 60 0,0
19.06.2018 12:00:00 26,5 14,3 31,8 22,0 11 6 26 14 NNE 1019,0 20 60 0,0
19.06.2018 11:00:00 24,5 14,6 28,7 21,9 13 7 37 20 NE 1019,5 20 60 0,0
19.06.2018 10:00:00 22,6 14,2 26,3 22,0 16 8 35 19 NNE 1019,9 20 60 0,0
19.06.2018 09:00:00 20,7 13,4 22,9 22,1 19 11 39 21 NE 1020,3 20 60 0,0
19.06.2018 08:00:00 19,0 13,0 18,7 22,3 17 9 35 19 NE 1020,1 20 60 0,0
19.06.2018 07:00:00 18,0 12,9 17,4 22,4 16 9 35 19 NE 1020,1 20 31 0,0
19.06.2018 06:00:00 17,2 12,5 17,4 22,6 17 9 36 20 NE 1019,8 20 0 0,0
19.06.2018 05:00:00 17,8 12,7 17,9 22,8 21 11 36 20 NE 1019,2 20 0 0,0
19.06.2018 04:00:00 18,0 12,7 18,0 23,0 16 9 32 17 NE 1019,0 20 0 0,0
19.06.2018 03:00:00 18,8 12,5 18,9 23,1 18 10 34 18 NE 1018,6 20 0 0,0
19.06.2018 02:00:00 19,3 12,6 19,0 23,3 14 8 31 17 NE 1018,5 20 0 0,0
19.06.2018 01:00:00 20,0 12,5 19,9 23,5 14 7 26 14 NE 1018,5 20 0 0,0
19.06.2018 00:00:00 20,3 12,3 20,1 23,6 8 5 30 16 ENE 1018,6 20 0 0,0
18.06.2018 23:00:00 21,4 12,3 21,2 23,7 20 11 36 19 N 1017,8 20 0 0,0
18.06.2018 22:00:00 22,5 11,9 22,3 23,8 21 11 39 21 N 1016,9 20 0 0,0
18.06.2018 21:00:00 23,5 12,5 23,6 23,8 20 11 36 20 N 1016,2 20 27 0,0
18.06.2018 20:00:00 25,7 12,5 29,1 23,7 18 10 38 20 N 1015,6 20 60 0,0
18.06.2018 19:00:00 26,9 14,0 28,5 23,5 20 11 29 16 N 1014,9 20 21 0,0
18.06.2018 18:00:00 27,5 15,2 29,5 23,3 12 6 21 11 SW 1014,8 20 3 0,0
18.06.2018 17:00:00 27,5 15,2 29,6 22,9 10 6 23 13 SW 1014,8 20 23 0,0
18.06.2018 16:00:00 28,2 14,8 30,7 22,5 4 2 22 12 NE 1014,7 20 36 0,0
18.06.2018 15:00:00 27,8 15,5 35,4 22,1 13 7 26 14 NE 1014,9 20 60 0,0
18.06.2018 14:00:00 26,9 14,3 33,2 21,8 14 8 35 19 NNE 1015,3 20 60 0,0
18.06.2018 13:00:00 25,7 13,5 30,8 21,6 21 11 38 20 N 1016,1 20 60 0,0
18.06.2018 12:00:00 24,3 13,2 28,7 21,4 20 11 37 20 N 1016,3 20 60 0,0
18.06.2018 11:00:00 22,5 12,4 27,0 21,5 21 11 41 22 NNE 1016,4 20 60 0,0
18.06.2018 10:00:00 21,2 12,1 23,9 21,5 21 11 39 21 NNE 1016,7 20 60 0,0
18.06.2018 09:00:00 19,6 11,6 21,4 21,7 17 9 36 19 NE 1017,1 20 60 0,0
18.06.2018 08:00:00 18,2 11,3 17,8 21,8 18 10 36 20 NE 1016,8 20 60 0,0
18.06.2018 07:00:00 17,3 10,9 16,6 22,1 16 9 34 18 NNE 1016,7 20 31 0,0
18.06.2018 06:00:00 16,7 10,8 16,6 22,3 18 10 42 23 NNE 1016,7 20 0 0,0
18.06.2018 05:00:00 17,0 10,8 16,9 22,5 18 10 43 23 NNE 1015,9 20 0 0,0
18.06.2018 04:00:00 17,5 10,8 17,2 22,8 16 9 36 19 NNE 1015,8 20 0 0,0
18.06.2018 03:00:00 17,8 11,1 17,6 23,0 16 9 45 24 NNE 1015,9 20 0 0,0
18.06.2018 02:00:00 18,0 11,1 17,9 23,2 20 11 42 23 N 1015,6 20 0 0,0
18.06.2018 01:00:00 18,5 11,3 18,4 23,4 22 12 40 22 N 1015,8 20 0 0,0
18.06.2018 00:00:00 19,0 11,6 19,0 23,6 24 13 49 26 N 1015,7 20 0 0,0
17.06.2018 23:00:00 19,9 12,2 19,6 23,8 22 12 47 26 NNE 1015,7 20 0 0,0
17.06.2018 22:00:00 20,4 13,1 20,3 23,9 29 16 47 26 N 1014,9 20 0 0,0
17.06.2018 21:00:00 22,2 13,8 22,1 24,0 23 12 35 19 N 1014,0 20 27 0,0
17.06.2018 20:00:00 23,0 15,1 23,4 23,9 21 11 34 18 N 1013,6 20 4 0,0
17.06.2018 19:00:00 22,0 19,0 19,5 23,9 3 2 41 22 ESE 1013,3 20 0 0,4
17.06.2018 18:00:00 21,3 16,3 20,0 23,6 27 15 55 30 NNW 1013,6 6 0 3,3
17.06.2018 17:00:00 26,7 16,0 28,7 23,3 19 11 30 16 WSW 1012,3 20 35 0,0
17.06.2018 16:00:00 27,3 15,0 30,7 22,9 16 8 27 15 SSW 1012,4 20 49 0,0
17.06.2018 15:00:00 27,9 16,2 30,7 22,5 14 8 22 12 SW 1012,3 20 53 0,0
17.06.2018 14:00:00 26,8 15,2 34,4 22,1 8 4 20 11 ENE 1013,0 20 60 0,0
17.06.2018 13:00:00 26,2 14,3 32,6 21,9 13 7 26 14 NE 1013,3 20 60 0,0
17.06.2018 12:00:00 25,4 14,2 31,5 21,7 15 8 34 19 NNE 1013,6 20 60 0,0
17.06.2018 11:00:00 23,9 14,3 28,5 21,6 19 10 38 20 N 1014,1 20 60 0,0
17.06.2018 10:00:00 22,2 14,1 25,4 21,7 17 9 34 18 N 1014,4 20 60 0,0
17.06.2018 09:00:00 20,6 13,8 22,6 21,8 18 10 33 18 NNE 1014,4 20 60 0,0
17.06.2018 08:00:00 18,8 13,4 17,7 22,0 7 4 17 9 ENE 1014,6 20 60 0,0
17.06.2018 07:00:00 17,1 13,2 16,3 22,2 10 5 25 14 E 1014,5 20 31 0,0
17.06.2018 06:00:00 16,4 13,1 15,9 22,3 7 4 22 12 ENE 1014,6 20 0 0,0
17.06.2018 05:00:00 16,1 13,4 15,8 22,5 6 3 25 14 E 1014,1 20 0 0,0
17.06.2018 04:00:00 17,2 13,5 16,7 22,7 10 6 21 11 NE 1013,9 20 0 0,0
17.06.2018 03:00:00 17,3 14,0 16,3 22,9 6 3 16 9 ENE 1013,6 20 0 0,0
17.06.2018 02:00:00 16,5 14,7 15,6 23,0 7 4 17 9 E 1014,0 20 0 0,0
17.06.2018 01:00:00 15,8 15,0 15,5 23,2 6 3 11 6 ENE 1014,4 15 0 0,0
17.06.2018 00:00:00 16,4 15,9 16,8 23,3 8 4 11 6 ENE 1014,2 12 0 0,0
16.06.2018 23:00:00 17,3 16,5 17,4 23,4 5 3 10 6 NE 1013,9 20 0 0,0
16.06.2018 22:00:00 18,4 17,2 18,4 23,5 6 4 12 6 NE 1013,6 19 0 0,0
16.06.2018 21:00:00 19,5 17,8 20,4 23,5 7 4 13 7 NNE 1013,1 20 56 0,0
16.06.2018 20:00:00 19,5 17,3 20,2 23,4 5 3 20 11 E 1012,8 20 1 0,2
16.06.2018 19:00:00 21,2 15,9 23,2 23,3 6 3 31 17 NNE 1012,4 20 14 0,0
16.06.2018 18:00:00 24,9 14,4 26,5 23,1 24 13 36 19 SSW 1010,9 20 25 0,0
16.06.2018 17:00:00 24,7 15,3 26,6 22,9 19 10 39 21 S 1010,8 20 41 0,0
16.06.2018 16:00:00 24,4 14,8 - - 31 17 42 23 W 1011,1 20 - 0,0
16.06.2018 15:00:00 26,9 15,0 33,3 22,2 15 8 26 14 SSW 1010,7 20 60 0,0
16.06.2018 14:00:00 26,3 14,1 29,4 21,8 12 7 25 14 SSW 1011,0 20 45 0,0
16.06.2018 13:00:00 26,3 13,1 31,9 21,5 6 3 17 9 SW 1011,4 20 47 0,0
16.06.2018 12:00:00 25,2 14,0 31,4 21,3 10 5 21 12 NNE 1011,8 20 60 0,0
16.06.2018 11:00:00 23,0 14,0 27,5 21,3 13 7 26 14 NE 1012,2 20 53 0,0
16.06.2018 10:00:00 20,8 13,2 20,7 21,3 14 8 27 14 NNE 1012,9 20 31 0,0
16.06.2018 09:00:00 18,1 12,5 20,0 21,4 16 9 31 17 NNE 1013,7 20 9 0,0
16.06.2018 08:00:00 17,8 12,5 16,9 21,6 13 7 23 12 NE 1013,3 20 41 0,0
16.06.2018 07:00:00 16,3 12,1 16,7 21,8 11 6 23 13 NE 1013,3 20 0 0,0
16.06.2018 06:00:00 17,0 11,9 16,8 21,9 8 4 24 13 NE 1013,0 20 0 0,0
16.06.2018 05:00:00 17,4 11,9 16,8 22,1 10 6 23 12 NE 1012,5 20 0 0,0
16.06.2018 04:00:00 17,1 12,0 17,0 22,3 11 6 23 13 NE 1012,5 20 0 0,0
16.06.2018 03:00:00 17,6 11,8 17,3 22,4 12 6 26 14 NE 1012,4 20 0 0,0
16.06.2018 02:00:00 18,1 11,9 18,1 22,6 13 7 23 12 NNE 1012,4 20 0 0,0
16.06.2018 01:00:00 18,7 11,7 18,1 22,7 10 5 19 10 NE 1012,3 20 0 0,0
16.06.2018 00:00:00 20,1 11,6 19,7 22,9 6 3 19 11 NE 1011,8 20 0 0,0
15.06.2018 23:00:00 19,9 12,6 18,0 23,0 5 3 10 6 ENE 1011,6 20 0 0,0

tt = temperature
td = dewpoint
tt 5cm = temperature 5cm
tt -20cm = temperature -20cm
ff = wind speed
fx = gusts
dd = wind direction
ppp = reduced air pressure
vv = visibility
sd = sunshine duration
rr = precipitation

Next stations